Theta_e
302 302 302 302 303 303 303 304 304 304 305 305 305 306 306 306 306 306 306 307 307 307 307 307 307 307 307 307 307 307 305 303 303 302 303 310 312 311 311 310 310 311 310 309 309 311 311 311 311 312 314 314 314 319 321 322 327 331 334 334 334 333 332 333 334 335 337 338 336 332 329 331 335 331 325 321 324 331 329 330 338 338 338 337 332 331 334 338
303 303 302 302 303 303 303 304 304 304 305 305 305 306 306 306 306 306 305 305 305 306 307 307 307 307 307 307 307 306 304 303 303 301 305 312 312 311 311 310 311 309 307 307 308 310 312 312 312 312 314 315 314 316 320 323 325 328 331 332 331 330 330 331 332 334 334 335 337 336 333 332 333 329 324 323 326 331 330 331 339 342 341 338 333 333 336 338
303 303 303 303 303 303 303 304 304 303 303 304 304 305 305 304 304 305 304 305 304 304 306 307 307 307 307 307 307 305 303 303 302 302 309 312 309 310 310 310 310 308 307 308 308 309 312 312 312 313 313 315 315 316 318 321 325 326 329 331 329 327 329 331 331 332 332 333 337 337 333 333 332 327 323 325 327 331 331 329 336 341 344 345 336 333 336 338
302 302 303 302 303 303 302 303 302 303 303 303 303 303 303 302 302 302 303 304 303 303 305 306 307 307 306 307 306 304 303 303 302 306 312 310 306 306 307 307 307 306 307 309 309 310 311 311 312 313 313 314 315 316 315 317 324 327 327 328 327 327 328 329 331 331 331 332 334 335 333 335 334 328 324 325 327 331 331 328 331 335 341 343 336 334 336 337
302 302 302 302 302 302 302 302 302 303 303 302 302 301 299 298 297 298 301 303 303 303 305 306 307 306 307 306 304 304 302 301 303 309 311 306 303 304 303 303 304 306 307 308 310 311 311 312 313 314 314 315 315 316 315 314 318 322 325 326 326 327 326 326 330 331 332 333 334 335 334 334 333 330 327 326 327 330 331 329 326 331 344 342 334 335 336 337
302 302 302 302 301 301 302 302 302 302 302 302 302 299 295 294 295 298 302 304 304 305 305 306 306 306 307 306 304 304 302 300 302 306 306 302 302 303 303 302 303 305 306 307 310 311 313 313 314 314 313 314 314 315 315 313 314 317 322 324 324 325 326 326 327 329 332 334 334 335 335 332 333 334 330 326 326 327 326 325 325 335 344 338 332 335 336 338
302 302 302 301 301 301 302 301 301 301 302 302 301 296 294 295 298 301 303 304 305 305 306 306 306 306 306 305 304 303 303 302 301 301 301 301 303 303 302 302 302 304 304 306 310 312 312 313 314 313 312 313 314 314 315 314 314 315 317 320 323 324 324 326 325 326 330 332 332 333 335 333 333 334 330 327 327 327 324 325 336 343 338 333 335 336 336 337
301 301 301 301 301 301 301 301 301 302 303 302 297 294 294 295 297 302 305 304 304 306 306 306 306 306 306 305 304 303 304 304 302 300 301 302 303 302 301 302 302 302 304 306 309 312 312 312 313 313 312 313 314 315 315 315 315 314 313 315 320 323 323 324 323 325 327 328 329 332 335 334 333 332 331 330 330 330 325 327 345 349 338 336 338 336 335 336
301 300 300 300 300 301 301 301 301 302 302 299 295 293 294 294 295 300 304 304 304 305 306 306 306 306 306 304 303 303 303 303 301 301 302 302 302 302 302 303 303 303 303 304 307 310 310 311 312 313 313 313 314 315 315 316 316 314 312 312 316 320 322 324 324 324 324 325 328 332 333 333 333 332 333 332 329 329 326 331 344 347 344 339 337 336 336 336
300 299 299 300 300 300 300 301 301 300 299 297 294 292 294 294 294 299 302 302 304 305 306 306 306 306 305 304 304 304 302 300 301 302 302 302 302 302 303 304 304 304 302 303 304 306 309 311 312 312 313 314 314 315 315 316 316 315 314 313 315 317 320 323 324 324 323 323 327 331 331 331 333 334 334 331 329 330 333 343 345 343 345 340 335 336 335 335
299 299 299 300 300 300 300 300 300 300 299 298 296 293 293 293 294 298 298 300 305 305 306 306 305 305 305 304 303 304 302 300 302 301 301 302 302 302 304 304 304 304 303 303 304 305 308 310 311 312 313 314 314 315 315 315 314 314 313 313 314 315 318 320 322 324 324 323 324 327 328 330 333 333 333 329 330 330 334 346 349 345 343 338 335 335 335 336
300 299 300 300 299 300 300 300 300 300 300 300 298 294 293 293 295 297 297 301 305 306 306 306 306 305 304 304 304 303 301 300 301 301 302 302 301 301 303 304 304 305 304 303 304 305 306 308 310 311 312 313 314 315 314 314 314 313 313 313 312 314 317 318 320 322 324 325 323 325 327 329 330 330 330 328 328 328 328 335 342 347 345 338 337 336 335 335
299 299 299 299 299 299 299 299 300 300 300 300 300 297 295 295 296 296 296 302 306 306 305 305 306 304 304 305 304 301 300 301 301 301 302 301 300 301 303 303 304 305 305 304 304 305 305 306 309 310 311 312 313 314 313 312 313 313 313 314 313 314 315 317 320 322 324 326 324 326 329 329 327 326 326 326 326 327 327 326 330 338 343 340 338 337 336 335
299 299 299 299 299 299 299 299 300 300 300 301 300 297 296 296 297 296 298 303 306 306 306 305 305 303 303 305 302 300 301 301 301 301 301 301 301 302 302 302 304 305 305 305 305 306 306 306 309 310 310 311 312 313 313 313 316 316 315 314 314 314 313 315 322 322 323 325 324 326 331 330 326 326 325 324 325 327 326 325 324 329 337 340 338 337 337 335
299 299 299 299 299 299 299 299 300 300 301 300 298 296 297 297 297 297 301 304 304 303 303 304 304 302 304 305 301 300 301 301 301 301 301 301 302 303 301 302 305 306 305 306 306 307 307 307 309 310 310 311 312 312 313 314 318 319 317 315 314 313 312 314 320 322 323 325 324 327 331 329 326 327 326 325 325 325 324 324 324 324 331 338 339 338 337 336
299 299 299 299 299 299 299 299 299 300 300 299 297 296 298 298 298 301 304 303 301 301 302 303 303 302 305 306 301 301 301 300 301 301 301 301 301 301 301 303 305 305 305 306 306 307 308 308 309 309 310 311 311 312 314 315 316 316 317 316 313 312 311 311 316 321 322 324 326 327 330 329 327 328 327 325 325 325 324 323 323 323 325 332 337 337 337 337
298 299 298 298 298 298 298 299 299 300 300 297 296 297 298 300 301 302 303 301 300 302 302 302 301 301 305 305 300 301 300 300 301 301 302 302 302 302 303 304 305 304 305 305 306 308 308 308 309 310 310 310 311 312 314 316 316 314 315 316 315 314 313 311 313 319 322 323 325 327 328 328 329 331 329 326 325 325 324 324 323 322 323 328 334 336 336 337
298 298 298 298 298 298 298 298 299 300 298 297 297 298 299 301 302 302 300 299 300 302 302 301 301 303 305 302 300 300 300 300 301 302 302 302 303 304 304 304 304 304 306 307 308 308 308 308 308 310 311 310 311 312 313 316 316 314 314 315 315 315 315 313 312 319 324 323 324 327 329 329 328 331 331 327 325 326 325 324 325 325 325 325 330 334 335 335
298 298 298 298 298 298 298 298 300 299 297 298 297 298 298 299 301 301 298 299 301 302 303 301 300 302 303 301 300 300 300 301 302 302 302 303 304 304 304 304 305 305 306 308 308 308 308 308 308 309 310 310 311 311 312 314 314 314 312 311 314 315 317 317 316 321 324 324 325 327 328 329 328 329 330 328 327 327 326 324 326 329 328 325 326 329 332 335
298 298 298 298 298 298 298 299 300 298 297 298 297 298 299 299 303 305 300 300 301 299 300 301 300 301 302 303 301 300 301 301 302 302 302 304 304 304 304 304 306 306 306 307 308 308 307 307 308 308 309 310 311 310 309 310 310 311 311 310 315 318 319 319 319 320 320 323 327 325 326 328 328 328 328 327 327 329 330 327 327 328 327 327 326 326 327 331
297 297 297 297 297 298 298 299 299 297 298 299 297 299 299 299 303 304 301 301 300 298 300 301 299 300 301 301 300 300 302 303 303 302 302 304 304 304 305 305 306 305 305 307 307 306 305 306 308 309 309 309 310 308 307 308 307 310 312 313 315 318 320 320 320 319 316 321 327 326 326 327 326 327 328 327 327 327 328 328 327 326 325 327 327 327 326 326
297 297 297 297 297 297 298 299 298 297 299 299 298 299 299 299 300 300 300 302 301 298 299 299 299 301 301 299 300 300 301 304 304 302 302 304 303 304 305 304 304 305 305 306 305 305 306 307 307 308 309 308 308 307 307 308 307 308 311 313 314 317 318 318 318 319 314 317 326 328 328 328 326 326 327 326 326 325 326 327 328 327 326 325 327 329 330 329
297 297 297 296 297 297 298 299 297 297 299 299 298 299 299 300 300 300 300 302 301 299 301 302 301 303 303 301 300 301 302 304 304 303 302 303 304 304 304 304 304 305 305 305 305 306 306 307 308 308 309 309 308 309 309 309 308 308 309 310 312 315 318 318 317 316 314 314 319 323 324 324 325 327 326 325 325 325 326 326 327 328 327 326 327 329 330 331
297 296 296 296 296 296 298 298 297 297 299 298 298 298 299 300 301 301 301 299 300 301 301 300 299 302 304 301 299 301 303 302 303 304 302 303 304 304 304 304 305 305 304 304 305 306 306 307 308 307 308 309 309 310 310 310 310 308 308 309 309 311 315 317 316 314 316 317 315 317 320 319 322 327 327 326 325 325 326 326 326 327 327 328 328 329 329 330
296 296 296 296 296 297 298 298 297 297 298 298 298 298 299 300 300 301 300 298 299 301 299 297 298 301 302 300 299 300 302 303 304 302 301 303 305 304 305 303 304 305 303 303 305 306 305 306 307 306 308 309 309 310 310 310 311 308 307 307 306 309 312 314 315 313 317 320 314 314 321 321 322 326 326 327 327 326 325 326 325 325 326 328 328 329 329 329
296 295 295 295 296 297 298 298 298 297 298 298 298 299 299 300 300 300 299 301 303 301 298 298 299 300 300 298 298 298 301 306 305 300 300 303 304 304 305 304 303 303 303 303 304 305 306 306 306 306 307 308 308 310 310 309 311 309 307 307 304 305 310 311 311 312 316 318 313 313 319 321 322 323 322 325 328 327 326 326 326 325 325 326 326 327 327 328
295 295 295 296 296 297 298 298 298 297 298 298 298 300 299 299 301 299 300 305 304 298 298 301 299 299 299 297 298 299 302 303 301 300 302 303 304 304 304 305 304 303 303 303 304 306 307 306 306 306 307 308 308 310 310 308 312 312 309 309 307 304 307 308 308 311 314 313 310 313 318 319 320 320 319 322 326 326 326 326 327 326 324 324 324 323 325 326
295 295 296 296 296 297 297 297 297 297 298 299 299 300 299 300 300 298 302 303 298 296 300 301 299 299 298 297 299 302 301 301 301 301 301 301 304 304 304 305 304 304 303 303 306 307 306 307 306 306 307 308 309 311 310 308 312 312 309 310 311 307 305 306 307 309 310 309 308 311 316 317 317 321 321 321 323 323 323 324 325 326 325 324 324 323 323 323
295 296 296 297 297 297 297 297 297 298 299 299 299 300 299 299 297 299 305 301 295 296 299 299 299 299 297 297 300 301 300 301 302 300 300 302 303 303 304 305 304 304 303 304 307 307 306 306 305 305 307 309 310 310 309 308 311 312 310 310 311 310 308 305 305 307 308 308 307 306 311 314 314 319 321 319 321 321 320 321 320 322 324 324 325 324 324 323
295 295 296 297 297 297 297 298 298 299 300 300 300 300 299 298 300 305 306 298 295 297 297 297 299 298 297 297 299 299 298 300 301 299 301 303 302 302 303 304 304 304 303 304 306 306 306 305 304 305 307 308 308 308 308 309 311 312 312 311 311 312 312 309 307 308 306 307 307 304 307 311 310 316 321 320 323 323 318 318 317 317 320 321 323 324 324 323
294 295 297 298 298 298 298 298 299 300 300 300 299 299 297 297 303 308 302 294 295 298 298 298 298 298 297 297 298 298 297 298 299 298 299 301 301 302 302 303 303 303 303 303 304 304 306 307 306 306 306 306 308 308 308 308 309 312 313 313 313 313 313 312 311 309 306 308 310 305 304 307 307 312 320 320 320 320 318 318 317 317 317 317 319 321 322 322
293 296 298 299 299 299 299 299 300 300 299 300 298 297 300 301 302 302 298 296 297 298 299 299 299 298 297 296 298 297 297 299 299 297 298 301 302 302 302 302 302 302 302 302 302 303 305 307 307 306 306 307 308 310 310 309 309 312 313 313 313 312 312 313 313 310 308 310 311 304 301 304 304 306 311 311 311 315 319 319 319 318 317 316 317 318 320 322
293 297 298 298 299 299 299 300 300 300 300 299 298 299 306 308 302 297 297 300 299 297 298 299 298 297 297 297 298 296 297 299 298 297 298 300 301 301 301 301 301 301 302 302 302 302 303 305 305 305 306 306 307 309 310 309 310 311 312 312 312 312 313 314 314 314 313 312 310 304 301 305 307 305 305 303 304 308 311 315 319 320 320 319 319 320 322 323
294 298 298 298 298 298 300 300 299 300 299 297 299 302 305 304 298 296 298 300 299 298 299 299 297 297 297 297 297 297 298 300 298 297 298 299 301 301 301 300 300 301 301 301 302 302 302 304 304 303 304 305 306 307 308 308 309 311 312 313 313 312 313 313 313 314 313 312 310 306 305 311 312 309 308 307 309 311 308 309 312 315 316 317 317 317 317 317
296 298 297 297 298 297 299 299 299 300 298 298 303 305 302 300 295 295 299 299 299 299 299 298 297 298 298 296 297 297 297 299 299 297 298 299 300 301 301 301 299 299 301 301 302 302 301 302 303 301 302 305 305 304 306 308 309 310 311 313 313 310 311 313 312 313 311 311 311 310 312 315 313 310 310 311 315 313 308 307 307 308 309 310 311 310 310 310
296 297 297 297 297 298 299 299 300 299 297 301 308 305 301 300 295 295 299 300 299 299 299 298 297 298 297 295 297 298 296 298 299 298 299 299 299 300 301 301 299 298 300 302 302 302 302 302 302 302 304 307 304 301 305 308 308 310 311 312 311 308 309 311 311 311 310 311 312 312 314 314 312 312 309 308 311 308 305 306 306 306 307 307 308 308 307 308
296 297 297 297 298 299 298 299 299 298 298 303 308 303 298 298 297 297 299 299 298 298 298 298 297 297 298 296 297 297 297 298 298 298 299 299 299 300 299 300 300 298 299 301 302 302 302 302 302 302 304 304 302 302 305 306 306 310 311 309 308 308 309 310 310 311 311 312 313 311 312 312 313 315 310 307 309 307 306 307 306 306 306 306 307 307 307 307
295 297 297 297 298 298 298 300 298 296 300 304 303 299 296 296 297 298 299 299 298 298 298 298 297 296 297 297 297 297 298 298 297 297 299 299 299 299 299 299 300 298 298 300 302 301 301 302 302 301 301 300 301 305 307 306 306 309 309 307 308 310 310 310 311 311 310 311 313 312 311 313 314 312 310 309 309 307 307 306 305 306 306 306 306 306 307 307
295 298 299 297 297 298 298 299 296 296 304 304 299 297 296 296 297 297 298 298 298 298 298 298 298 296 296 297 298 297 297 298 297 297 298 298 298 299 298 298 299 298 298 300 301 300 300 302 301 300 300 299 302 305 305 303 305 307 307 307 308 310 310 310 310 310 309 310 312 312 311 313 313 309 308 309 309 307 307 305 305 305 305 305 306 306 307 307
293 299 300 296 297 298 297 297 297 299 303 299 295 297 297 298 300 298 297 298 298 298 298 298 298 297 298 299 298 298 298 299 298 297 298 298 298 299 297 296 297 298 298 300 300 299 300 301 300 299 300 300 302 303 301 301 304 306 307 306 306 307 308 309 308 309 310 309 310 311 309 310 314 311 308 309 308 306 306 304 303 304 304 305 305 306 306 306
292 300 301 295 296 297 296 298 298 297 298 296 295 297 297 299 301 300 298 297 297 298 298 298 299 298 299 300 299 299 298 299 298 298 299 298 298 298 296 295 296 297 298 299 299 299 300 300 299 299 300 300 299 299 298 298 302 306 306 303 303 305 306 306 306 307 307 306 307 308 307 308 312 313 310 309 306 303 303 303 303 303 303 304 304 305 306 305
295 301 299 294 295 296 298 299 295 293 296 297 296 297 297 299 300 298 296 295 295 297 297 298 299 299 299 299 299 299 298 298 298 298 299 299 299 299 296 293 294 296 297 299 299 300 300 299 299 299 299 298 298 298 297 297 302 305 304 302 301 303 303 302 302 304 303 304 305 307 307 308 309 312 309 305 302 299 301 302 302 302 302 303 302 302 303 304
297 300 296 293 294 295 298 300 295 294 297 296 294 293 294 297 297 295 294 295 295 296 297 299 299 298 298 297 298 299 298 298 298 299 300 299 299 299 295 292 293 294 296 298 299 300 299 298 298 298 298 298 298 300 299 298 302 303 301 301 301 302 301 300 301 302 302 303 304 305 307 307 308 310 305 300 299 299 300 300 300 300 300 300 300 300 301 301
293 293 294 293 293 296 299 299 296 295 295 295 294 294 294 294 295 294 294 295 296 296 297 298 298 297 296 295 296 297 298 297 298 298 298 298 298 298 295 292 292 292 294 296 298 299 299 299 298 297 297 298 301 302 300 299 300 300 299 300 301 301 301 300 302 303 302 301 302 304 305 304 304 305 300 297 298 298 298 298 298 299 299 299 299 299 300 300
292 291 292 292 291 293 296 295 295 295 294 294 295 295 294 294 293 293 294 295 294 295 297 298 297 297 294 292 294 296 295 296 297 297 296 295 296 297 294 291 291 291 293 295 297 299 300 299 298 296 296 298 300 300 299 298 298 298 298 299 299 300 300 300 301 301 300 300 300 303 303 301 300 300 298 298 298 298 298 298 298 299 299 299 299 299 299 299
293 293 294 294 292 292 292 291 292 294 294 294 294 293 292 294 294 291 292 294 292 292 295 295 295 295 292 291 294 294 293 293 294 294 293 292 293 295 293 290 290 292 294 296 296 298 300 299 298 297 296 297 297 297 297 298 298 298 298 299 299 299 299 299 300 300 299 299 299 300 300 299 298 298 297 298 298 297 298 298 298 299 298 299 299 299 299 299
293 293 292 292 293 294 292 290 291 293 292 292 293 292 292 293 294 291 292 293 292 291 293 292 291 292 291 290 292 292 291 291 292 291 290 290 292 293 292 290 291 294 295 295 295 297 298 296 296 297 297 297 297 297 298 298 298 298 298 298 298 298 298 299 299 299 299 299 298 298 298 298 298 297 298 298 297 297 298 298 298 298 298 298 298 298 298 299
290 291 288 287 290 293 290 288 290 291 291 290 291 292 293 293 293 292 292 291 291 291 290 290 289 289 289 289 289 291 291 291 290 290 290 291 291 290 290 291 292 293 292 292 293 295 295 294 295 296 296 296 296 297 297 296 296 296 296 296 296 296 297 298 298 298 298 299 298 298 298 299 298 297 298 297 297 298 298 298 297 297 297 297 297 297 298 298
287 289 287 285 288 291 289 287 289 290 291 291 291 291 293 293 292 291 290 290 291 290 289 290 290 288 288 288 288 290 290 289 288 289 290 291 290 288 290 291 291 291 290 289 291 291 292 294 295 294 293 292 292 293 293 293 293 293 294 294 295 296 296 297 297 297 298 298 298 298 298 298 298 298 298 297 297 297 296 295 295 295 295 296 296 297 297 297
289 290 288 287 289 290 289 289 290 291 292 291 291 291 291 291 291 290 289 289 290 289 289 290 291 288 288 288 288 289 289 288 288 288 289 289 289 289 290 291 291 291 289 289 290 290 291 292 293 291 290 290 290 291 292 292 293 293 293 294 295 295 295 296 296 296 297 298 298 298 298 298 297 297 297 295 294 293 293 292 292 293 294 295 296 296 297 297
288 287 288 291 293 290 289 289 289 291 293 291 292 292 291 290 289 289 289 288 288 288 290 290 289 288 288 288 288 288 288 288 288 288 288 288 288 289 290 290 289 289 289 288 289 290 291 291 291 291 290 289 290 291 292 292 293 293 294 294 294 294 295 296 297 297 298 298 298 298 298 297 296 294 293 292 290 290 290 291 291 293 294 295 295 296 296 296
288 286 286 290 292 289 289 289 287 288 292 293 292 292 290 289 288 288 289 289 288 288 290 289 288 288 288 288 288 288 289 289 288 288 288 288 287 287 288 288 288 288 288 287 288 289 291 290 290 290 290 290 291 292 293 293 293 295 298 298 297 295 296 297 298 297 298 298 297 298 297 295 294 292 290 289 289 288 289 290 291 293 293 295 296 296 296 295
Wind_Speed
16 16 16 17 17 18 18 19 19 20 20 20 21 21 21 21 22 22 22 23 23 23 23 22 22 22 21 21 22 22 25 28 26 22 11 9 15 17 15 12 11 13 14 15 18 16 16 16 14 14 13 9 3 2 3 4 2 2 3 6 9 11 11 8 9 8 3 3 3 3 4 4 2 4 3 2 1 0 1 2 1 1 1 1 2 5 21 29
17 17 17 17 17 18 19 19 19 20 20 20 21 21 21 21 22 23 23 24 23 23 23 23 22 22 21 21 21 21 26 27 23 14 3 9 13 14 17 18 14 15 15 13 15 12 7 8 10 11 7 3 1 2 3 2 3 5 4 6 11 11 8 7 9 7 5 6 4 3 4 4 2 2 1 1 4 1 3 4 3 2 4 2 4 13 23 27
17 18 18 18 18 18 19 19 20 20 20 20 21 21 21 22 24 24 25 25 24 23 23 23 22 21 21 20 19 22 25 23 15 3 5 7 11 15 22 20 16 17 15 12 13 11 7 8 10 7 3 3 1 1 3 2 3 5 4 8 12 9 5 6 9 10 8 5 2 5 3 1 3 2 1 1 4 2 5 6 2 6 8 3 6 13 20 23
17 18 18 18 18 19 20 20 21 21 21 21 21 22 22 24 24 25 25 25 25 23 21 22 21 20 20 20 21 23 21 12 6 3 4 9 16 22 23 19 19 16 14 13 11 11 10 9 8 2 2 4 2 1 3 3 2 2 6 10 9 5 7 8 7 8 8 6 4 5 4 5 3 2 2 2 2 4 5 8 8 8 6 7 8 11 16 18
17 18 19 19 19 20 22 21 21 21 22 22 22 22 23 24 24 25 25 25 25 22 21 20 20 19 18 19 22 21 13 4 1 4 1 13 19 20 20 19 20 15 14 15 10 9 10 7 5 2 3 4 2 1 3 4 2 4 8 12 10 6 8 7 5 7 7 5 5 5 8 7 1 1 3 6 4 6 5 5 7 5 4 9 9 11 13 14
18 19 19 19 21 21 22 21 22 22 23 22 22 23 23 24 25 25 25 25 24 22 21 19 19 18 16 20 21 14 6 0 4 4 7 16 17 18 19 20 20 17 17 15 10 8 7 4 4 2 2 4 5 6 4 3 2 6 9 10 12 10 8 4 4 7 5 6 7 6 5 3 3 5 3 7 7 7 4 1 3 5 7 11 9 9 12 14
18 19 19 21 22 21 21 22 23 23 23 23 23 24 24 24 25 25 24 24 23 22 20 18 18 17 17 20 16 7 4 4 10 10 13 16 14 18 23 22 20 18 17 14 10 5 4 5 5 4 4 6 7 8 5 4 6 8 10 11 11 11 10 8 7 6 5 8 9 5 2 4 10 7 1 4 8 8 3 2 0 3 8 12 11 11 13 15
19 19 20 21 21 21 22 23 23 23 23 24 24 25 24 24 25 24 23 23 22 21 19 17 18 16 18 18 10 4 1 6 12 15 15 16 18 23 26 24 20 18 16 12 8 4 4 6 7 4 6 9 5 5 3 2 8 11 12 11 9 10 10 8 9 11 10 8 4 4 6 11 11 4 2 5 7 8 4 1 2 5 6 9 12 14 12 13
19 19 20 21 20 20 22 22 23 23 24 25 25 25 24 24 24 21 21 23 22 20 17 16 16 16 17 12 6 4 5 6 14 18 18 21 24 25 23 21 20 18 15 11 8 6 4 3 5 4 8 10 7 7 4 3 6 8 9 9 9 12 10 7 9 12 13 9 2 5 9 11 6 1 7 10 10 9 3 1 2 6 7 8 11 14 14 13
19 20 20 21 21 21 22 22 23 24 25 26 26 25 24 23 22 19 20 23 21 18 16 14 13 15 13 7 4 3 6 11 18 19 21 22 24 24 21 20 20 17 13 12 10 7 4 3 5 6 8 8 8 9 7 7 5 5 8 8 9 12 9 9 11 9 10 9 7 9 11 9 3 4 9 10 8 4 4 3 3 5 7 8 9 11 13 13
19 20 20 21 22 22 23 24 24 25 26 26 27 25 24 23 20 17 20 22 19 14 13 12 13 14 9 4 1 4 9 17 20 20 18 18 23 24 22 21 19 16 12 11 11 8 7 7 7 6 6 4 5 8 9 10 8 8 10 10 10 10 8 10 12 9 6 6 9 11 13 8 3 7 13 8 5 5 5 3 4 5 6 6 6 7 9 10
19 19 20 21 23 22 23 24 25 26 26 27 28 27 24 21 18 17 18 17 14 11 10 11 12 13 8 1 4 7 14 19 20 20 15 16 25 25 22 21 18 14 10 9 12 10 8 9 7 5 5 4 3 6 6 10 10 10 8 10 12 10 10 11 10 10 7 6 6 6 10 11 10 14 14 10 8 5 4 5 4 5 5 5 5 5 6 7
20 20 21 22 23 23 24 25 26 27 28 29 29 27 23 19 18 17 15 13 11 9 9 11 12 10 5 2 6 9 17 19 19 19 17 21 27 23 20 22 19 14 10 10 14 14 11 11 7 6 7 6 5 3 4 4 6 8 8 8 9 8 11 10 8 9 10 9 5 6 9 13 17 19 15 12 11 8 10 12 9 7 5 5 6 5 7 6
20 21 22 23 23 24 25 25 27 28 29 31 29 25 21 19 18 14 12 9 7 8 10 11 12 7 3 4 7 12 19 20 19 19 22 27 25 21 22 23 21 17 13 11 14 14 13 12 7 6 6 5 5 6 7 4 1 4 6 6 5 6 10 7 7 9 11 11 7 8 11 13 15 14 13 14 12 9 13 15 12 10 6 5 6 6 8 8
20 21 22 23 24 25 25 26 27 29 30 29 25 23 22 18 14 11 7 4 7 12 12 10 8 4 2 4 7 16 20 18 20 24 27 26 19 17 23 25 22 15 11 10 10 10 10 8 5 4 4 4 5 7 7 3 1 2 4 5 5 8 9 5 6 10 12 9 9 11 10 12 14 10 9 11 12 13 15 15 13 11 9 7 7 7 8 8
21 22 23 23 24 25 26 26 27 29 29 27 24 23 19 14 10 7 2 3 11 12 6 4 3 2 2 4 11 17 15 15 25 31 29 24 17 17 21 22 17 10 10 9 6 6 7 6 3 3 3 4 4 6 6 3 3 2 4 5 4 7 8 6 6 9 13 9 9 14 12 9 9 9 9 8 11 14 15 16 15 12 10 8 7 7 8 8
22 23 23 24 25 26 26 27 27 28 27 25 25 21 14 10 8 3 1 9 12 5 2 1 0 2 1 5 13 15 14 20 30 31 26 22 16 15 14 10 8 9 12 10 4 2 3 4 3 3 2 3 4 5 6 6 6 4 4 4 4 5 6 6 6 6 12 12 10 14 15 14 8 4 6 8 11 13 13 14 15 12 9 8 7 7 7 8
22 23 24 25 25 25 26 26 27 27 25 24 24 16 9 7 5 5 9 15 9 2 3 2 3 2 2 9 13 15 21 27 29 24 20 19 14 11 10 6 5 7 8 5 1 3 2 3 3 2 2 2 4 4 7 7 4 6 7 6 5 5 5 6 5 4 10 13 12 12 15 19 15 7 5 3 7 11 12 13 13 10 7 6 6 7 7 8
23 23 24 25 25 25 25 25 27 25 22 25 20 7 7 8 4 3 15 17 7 2 2 3 4 2 5 12 13 17 26 25 19 15 15 17 13 11 10 7 4 3 3 2 0 2 2 2 2 2 2 3 4 5 9 10 8 8 8 7 6 5 5 5 4 5 5 9 11 12 14 16 16 11 7 5 3 7 10 9 9 8 7 7 6 5 7 9
23 23 24 25 25 25 25 24 25 22 20 24 19 6 7 9 3 3 12 10 3 1 2 3 1 0 6 10 13 20 24 17 7 7 14 15 11 11 8 2 2 2 0 2 2 1 1 3 5 5 6 5 3 4 7 10 10 7 5 5 4 3 5 4 5 6 3 3 8 12 15 17 15 12 10 8 4 5 7 7 8 9 10 10 8 7 7 8
22 24 24 24 25 26 25 23 22 18 15 20 21 12 5 6 3 3 7 5 2 2 4 6 4 5 10 13 16 16 12 7 4 6 12 12 8 8 5 3 4 3 1 3 3 2 1 3 5 5 5 4 4 3 5 7 7 5 2 3 3 2 4 4 5 5 4 1 5 9 14 17 16 12 7 7 7 7 7 8 9 10 10 10 12 15 11 7
23 24 24 25 25 25 23 21 18 13 12 18 22 13 4 5 2 3 3 4 6 5 5 8 5 6 11 14 12 8 4 4 9 9 9 9 6 4 4 4 3 4 3 3 3 3 2 5 7 6 4 2 4 4 3 5 6 4 2 2 2 2 2 5 5 5 4 1 3 6 10 13 14 12 9 9 9 7 6 7 8 10 10 9 12 16 13 9
23 23 24 25 25 24 22 18 12 9 11 17 20 11 6 8 4 1 0 2 5 5 3 5 3 4 8 7 5 7 4 2 6 9 7 7 5 1 3 4 4 5 5 3 4 4 3 4 6 4 5 5 5 4 3 3 4 4 4 3 4 1 1 3 3 5 7 2 4 5 6 7 8 8 9 12 11 8 6 7 7 7 9 10 11 12 13 13
23 24 25 26 25 22 19 14 8 8 9 12 15 12 9 9 5 2 1 1 3 5 3 3 2 3 5 6 8 7 3 1 4 7 7 6 4 3 2 3 5 5 4 5 6 7 7 5 3 3 1 4 6 3 2 4 3 3 5 5 4 2 2 4 2 5 8 4 3 4 5 5 5 5 7 7 8 9 9 9 8 7 7 8 8 9 10 13
23 24 25 26 23 21 15 7 8 11 5 5 9 12 10 8 4 1 1 3 3 6 3 2 2 2 6 9 13 6 1 2 5 6 6 4 3 4 3 2 2 3 4 6 5 6 8 6 4 3 3 3 4 3 2 3 2 2 2 4 5 4 4 3 4 5 4 3 4 6 3 5 3 5 6 4 5 8 7 9 12 10 7 6 6 7 8 10
24 25 26 24 20 19 11 2 8 13 3 3 8 11 10 7 2 1 2 4 3 5 5 4 1 5 9 10 13 7 1 4 9 10 6 2 3 3 4 2 1 3 4 4 3 3 4 4 4 7 7 5 5 3 3 4 1 1 1 3 5 4 5 2 2 2 1 3 3 5 0 4 3 3 5 3 6 8 7 7 10 10 8 6 6 7 7 8
25 27 26 21 16 14 7 2 10 10 2 4 11 11 10 7 1 2 2 5 4 3 3 5 3 6 10 12 13 5 1 8 13 8 2 3 4 2 3 4 1 3 2 1 2 1 3 7 4 1 4 6 5 3 4 6 3 2 3 2 3 1 5 5 4 3 2 4 3 3 1 4 4 5 6 4 5 7 7 7 8 8 9 8 7 7 7 8
27 28 23 17 12 9 5 5 9 6 3 9 11 11 10 4 2 2 5 4 3 2 0 3 5 6 9 13 10 3 2 7 6 6 8 8 3 1 3 4 2 6 4 2 4 0 1 4 5 5 1 4 4 3 7 9 3 2 5 4 3 1 3 4 5 4 2 2 4 3 1 2 5 4 4 3 5 6 6 6 7 7 8 9 8 8 7 7
29 26 19 13 8 5 5 6 7 7 9 11 10 11 8 1 2 3 6 2 2 2 1 1 6 7 9 11 6 3 4 3 1 8 13 7 1 0 2 3 3 7 6 2 5 4 1 2 2 4 3 2 3 4 7 8 3 3 6 5 3 1 0 2 3 3 3 2 6 7 2 2 5 3 1 2 3 5 5 6 7 6 7 7 8 8 7 6
28 20 13 10 7 6 8 6 7 10 11 10 10 10 4 2 3 6 5 1 2 2 2 2 4 6 11 10 5 7 7 3 2 6 6 4 4 4 0 2 1 3 4 2 4 6 5 1 0 2 3 1 2 3 1 2 1 2 4 3 2 1 2 2 1 3 4 1 6 9 7 4 4 3 4 3 3 5 5 5 6 6 7 7 7 7 7 7
24 12 9 10 8 10 9 6 10 12 10 9 10 7 1 1 4 6 1 2 1 4 3 4 4 6 11 8 3 9 8 5 6 6 5 5 6 8 6 3 2 2 4 4 4 7 6 2 1 3 2 2 1 2 3 2 2 2 3 2 1 1 2 2 2 3 2 3 7 9 8 7 5 4 2 3 4 3 5 5 7 7 8 8 8 7 7 7
19 7 7 9 9 11 10 8 12 12 10 10 8 4 4 2 4 2 2 3 1 3 3 3 6 8 9 5 2 8 7 4 6 7 5 5 5 8 8 7 6 5 6 6 8 8 5 2 3 3 1 3 4 3 2 3 3 2 1 2 2 0 1 1 1 1 2 4 4 5 6 4 6 6 5 8 8 6 5 5 7 8 8 8 8 8 7 6
13 3 6 8 9 12 11 11 12 10 11 10 5 4 6 5 2 2 3 3 2 3 2 2 6 7 6 4 5 7 4 2 7 8 5 4 4 5 7 8 8 4 3 5 6 7 5 3 6 7 3 3 4 3 3 3 2 1 0 1 2 1 0 2 2 1 1 3 5 1 5 2 5 5 9 12 11 10 10 8 8 8 8 9 8 6 6 7
7 2 5 7 9 12 12 12 10 10 13 8 3 5 6 4 1 2 1 3 4 3 2 2 6 6 4 3 4 6 3 2 6 9 6 4 5 5 6 9 11 6 3 3 3 4 4 4 5 7 4 4 6 4 0 2 1 1 1 1 2 1 0 1 0 1 0 2 4 1 2 3 3 2 5 8 8 7 7 7 7 6 6 6 6 7 7 7
3 2 6 8 10 11 13 11 10 11 11 5 6 6 4 2 2 1 1 4 2 3 4 3 3 4 4 3 3 5 3 2 6 7 5 4 4 4 5 7 10 8 5 4 2 2 1 4 5 6 5 4 8 6 2 1 1 2 1 2 1 1 1 0 1 2 2 2 2 0 1 4 4 3 5 3 2 6 8 8 8 8 8 7 8 8 8 8
1 1 5 10 13 13 13 11 10 12 8 4 6 4 2 3 3 3 2 2 0 2 5 5 4 4 4 4 3 6 2 2 5 6 4 4 3 4 5 4 7 8 5 4 3 3 3 5 6 9 6 2 5 8 4 2 2 3 1 1 1 1 1 0 1 1 3 1 1 2 2 4 2 4 7 7 7 9 10 9 9 9 9 9 8 7 7 7
1 1 4 12 18 15 12 11 11 11 5 6 6 2 3 2 3 4 1 2 1 1 3 3 2 2 3 3 3 7 6 2 4 4 4 4 3 3 5 3 5 8 6 3 1 3 3 6 6 6 6 7 5 5 3 2 2 2 2 3 3 0 2 1 1 1 2 1 1 2 5 4 1 2 6 11 10 9 9 8 8 8 9 8 6 6 7 7
3 2 3 10 18 15 11 11 12 7 4 6 5 2 2 1 2 3 1 1 1 2 3 0 1 1 1 2 3 5 7 5 5 5 3 3 2 2 4 3 4 8 7 3 1 2 3 5 3 2 5 11 8 5 3 4 4 1 2 3 2 2 2 1 1 2 2 2 2 1 4 2 0 1 5 9 8 8 8 9 10 11 9 7 7 7 8 8
3 2 2 10 17 14 10 10 8 5 6 4 2 1 2 2 2 3 1 1 1 0 1 1 2 1 1 1 3 4 5 5 6 4 1 1 2 2 4 3 5 9 9 5 2 2 3 2 3 2 7 10 7 4 3 5 5 3 2 3 2 1 1 1 0 1 1 1 3 2 2 1 2 2 1 3 5 6 8 9 10 10 9 8 7 7 8 8
3 2 1 11 16 12 9 8 6 6 5 2 2 2 1 2 2 2 1 2 1 1 1 1 1 1 1 3 4 2 2 4 4 2 1 0 2 3 5 3 5 9 9 5 3 2 2 2 3 6 8 6 3 2 2 3 4 4 4 5 5 3 2 1 1 1 2 1 2 2 2 3 3 3 4 5 3 4 7 9 8 8 9 9 8 8 8 8
4 2 2 13 17 10 6 7 6 4 2 2 1 1 1 1 1 3 3 2 1 0 1 1 2 1 2 3 2 2 2 4 3 2 2 1 1 1 4 4 5 7 6 5 4 2 1 2 3 6 7 4 5 4 2 1 2 1 3 5 5 4 3 3 2 2 2 1 0 1 3 6 4 4 5 3 2 5 8 9 9 9 10 10 9 9 9 8
4 1 3 14 18 10 6 5 2 2 3 1 0 1 1 2 2 3 4 3 2 1 2 1 1 2 2 2 2 2 3 4 3 2 2 2 2 2 2 7 6 5 4 3 4 2 0 1 3 5 4 6 10 8 4 1 2 3 4 4 4 4 5 4 2 3 3 1 0 0 2 6 4 3 4 2 7 11 10 9 10 10 9 10 10 10 10 9
3 1 3 15 17 7 6 4 3 3 1 2 1 1 1 2 1 2 3 3 2 1 2 1 1 1 1 2 2 2 4 3 3 2 2 2 3 4 1 8 8 6 4 3 3 2 1 1 2 4 4 6 8 6 5 3 3 5 4 4 3 3 4 1 3 3 2 1 1 1 3 6 3 3 3 6 10 12 10 9 10 11 10 10 11 12 11 11
1 2 2 13 15 4 5 2 0 1 2 3 4 3 2 0 1 2 2 2 2 1 2 1 1 1 1 2 3 2 3 3 2 3 2 1 3 2 4 9 9 6 3 2 3 3 1 0 1 3 5 6 7 6 5 5 4 3 2 2 3 3 3 2 1 1 1 2 1 1 4 7 4 4 9 13 12 11 9 8 9 10 11 11 11 12 12 12
2 0 3 9 15 9 4 1 3 2 1 2 3 3 3 2 1 2 1 2 1 0 1 2 1 2 2 3 3 2 3 2 2 4 3 2 4 2 5 11 10 4 4 7 5 2 1 1 0 1 1 1 3 4 3 4 5 2 1 2 3 3 3 2 2 2 2 1 1 1 5 10 12 12 15 16 13 10 10 11 10 10 11 11 11 11 11 11
2 2 2 6 9 8 2 1 3 2 1 1 2 2 1 1 3 1 2 0 2 2 1 2 2 2 3 4 4 3 4 2 2 3 3 4 4 2 7 12 9 6 8 9 7 1 1 1 3 4 4 5 6 7 5 5 7 7 8 8 5 3 4 3 2 3 2 1 1 7 10 13 18 17 15 16 15 12 11 12 13 12 12 12 11 10 10 11
2 1 1 2 4 4 3 3 4 2 1 1 0 1 1 0 3 3 1 1 1 2 2 2 3 3 2 3 3 3 4 4 4 4 4 5 4 4 9 9 6 6 7 8 8 3 1 2 3 6 9 9 9 11 10 8 8 11 13 11 7 6 5 5 7 7 2 1 6 11 8 9 16 16 14 16 15 12 12 13 13 12 12 12 12 12 11 11
2 2 1 1 0 1 1 2 2 2 1 0 2 1 0 1 1 2 2 1 2 1 1 2 3 3 2 1 1 2 4 4 4 4 3 4 4 6 8 5 2 6 8 5 5 4 1 3 4 4 7 9 9 10 10 9 10 10 11 11 10 10 9 9 11 10 5 5 10 11 7 9 16 17 16 16 13 12 13 12 10 11 11 12 13 14 13 12
2 1 1 2 1 2 2 2 1 2 1 0 1 0 0 2 1 2 1 2 3 3 1 1 1 1 2 2 2 1 2 2 4 4 3 3 4 5 5 4 2 5 7 5 5 3 0 3 3 2 6 9 10 11 10 10 11 10 10 10 11 12 13 12 12 10 9 11 14 14 14 16 16 15 15 14 10 9 10 10 11 13 14 13 13 15 14 13
2 2 1 2 2 1 1 1 2 1 1 1 1 2 1 3 2 2 1 1 1 3 1 1 3 2 2 3 3 3 5 4 5 6 3 4 5 2 2 3 1 4 7 5 4 4 2 3 5 5 5 7 8 9 8 8 10 11 11 11 13 13 12 10 11 9 7 10 13 13 16 16 10 7 9 10 9 8 10 12 13 13 14 14 13 12 13 14
3 3 3 3 2 2 1 1 2 2 1 1 1 3 2 2 3 1 1 3 4 2 1 3 2 1 1 4 5 7 8 6 8 10 7 7 7 4 3 3 2 5 6 3 3 4 2 2 5 5 4 5 4 5 8 9 10 11 12 13 13 10 7 6 6 5 5 7 10 10 10 9 5 6 7 10 11 10 10 12 13 12 13 13 11 10 12 14
4 3 3 4 1 2 0 1 1 1 1 2 3 3 1 2 3 2 1 2 2 3 3 5 3 1 2 3 6 7 7 7 9 10 8 9 10 9 8 8 7 6 5 3 3 2 1 2 4 3 3 4 2 5 10 10 8 7 7 7 5 3 3 5 5 5 7 7 7 7 5 3 5 7 7 10 12 12 11 10 11 12 12 10 9 10 11 13
Wind_Direction
15 15 14 13 10 9 8 7 5 4 4 1 360 359 358 358 356 355 354 354 353 351 349 346 344 345 345 344 342 336 330 327 327 329 337 28 33 36 30 5 354 348 340 336 330 326 327 326 334 346 344 345 345 317 289 212 194 222 204 216 223 226 220 194 197 200 191 235 199 186 163 159 296 303 291 16 29 9 207 254 282 291 339 233 272 145 150 153
15 16 15 13 10 9 7 6 3 2 1 358 358 356 355 355 353 352 350 351 350 348 348 345 344 345 344 344 341 335 332 328 325 325 5 56 41 38 21 5 357 351 345 337 328 320 322 313 322 346 344 331 322 319 314 252 192 202 206 220 226 227 213 189 209 214 215 221 195 212 189 159 198 265 329 324 274 241 170 256 328 284 274 17 109 141 149 153
15 14 13 11 8 7 4 2 0 358 357 355 354 352 350 350 350 349 348 349 347 346 346 344 344 343 343 341 337 335 333 328 330 354 110 43 9 354 351 351 348 349 347 337 325 306 290 287 297 328 327 289 272 296 320 289 211 218 214 225 232 231 222 199 208 219 230 231 211 242 223 173 222 189 86 234 260 226 194 227 222 236 235 163 132 147 152 156
14 12 10 8 5 3 0 357 356 355 353 351 349 348 346 346 347 346 346 346 345 345 343 343 343 342 341 335 332 335 335 334 340 151 117 4 343 340 345 349 344 346 352 345 333 301 289 288 282 284 269 269 250 281 288 253 257 248 216 234 243 228 233 217 202 221 232 238 231 241 270 280 245 159 163 158 262 276 240 231 214 226 214 167 162 159 161 162
12 9 8 5 2 359 357 355 353 352 349 348 347 345 344 344 344 343 344 344 345 345 342 343 342 342 339 331 331 337 342 4 359 194 246 342 337 342 348 350 345 346 354 352 349 318 302 287 258 223 238 245 226 262 254 235 280 287 242 250 259 238 236 221 202 230 228 224 229 236 252 265 269 147 183 163 208 250 235 235 228 228 156 162 173 165 165 168
9 6 4 2 360 357 356 353 350 349 348 348 347 345 344 345 345 344 344 344 344 343 342 342 342 344 336 331 335 348 22 60 293 273 309 334 339 343 339 341 342 339 343 349 360 344 316 285 232 215 246 249 241 239 255 284 277 270 262 261 259 250 254 256 226 234 221 219 226 225 238 262 268 263 209 174 212 233 206 134 251 228 158 153 160 171 175 176
6 4 1 359 358 355 353 350 348 348 348 347 345 346 346 346 346 344 343 343 342 341 341 341 343 341 332 338 346 10 81 245 301 321 323 333 335 332 327 328 331 328 335 345 352 352 329 309 261 238 257 257 249 243 249 284 276 269 266 261 264 266 265 266 267 268 242 234 235 219 199 231 239 250 208 198 234 246 247 34 288 187 151 149 158 182 189 185
4 1 359 358 355 352 352 350 349 348 347 344 343 345 346 347 346 342 341 339 338 338 339 339 342 336 333 352 8 358 284 264 323 337 331 329 321 323 325 327 329 326 329 330 331 340 338 312 277 242 241 245 246 246 211 238 264 254 253 263 275 278 273 266 260 263 260 256 252 219 228 237 233 247 282 232 249 266 275 275 161 137 150 162 171 185 195 197
1 358 357 356 349 348 351 349 348 346 344 342 342 344 343 345 345 342 339 335 336 335 335 339 339 331 335 3 40 337 300 308 338 337 329 322 319 327 333 335 335 330 323 312 310 314 319 302 278 254 244 248 247 248 204 178 244 241 250 267 271 273 278 282 260 248 253 255 230 225 242 247 231 292 273 239 239 268 318 316 170 145 171 184 185 186 190 201
356 355 355 352 347 346 347 347 346 344 343 343 342 341 340 343 346 344 339 335 335 332 334 339 329 325 339 18 46 323 304 328 335 330 327 326 328 335 340 341 336 326 312 301 299 287 278 280 288 292 270 252 239 243 222 212 249 281 286 278 271 279 278 272 268 254 256 249 222 232 246 249 175 161 248 234 214 225 68 67 142 156 191 201 204 195 190 198
356 355 353 350 350 349 348 347 346 345 344 342 340 339 338 341 345 343 336 333 333 333 333 328 318 323 344 30 349 285 311 325 327 326 330 338 341 337 335 340 335 321 305 292 287 272 266 282 298 303 280 256 235 237 225 228 254 276 285 290 281 287 278 255 259 258 266 252 219 228 248 251 170 200 235 230 187 159 111 120 150 172 213 217 223 216 205 205
357 355 352 351 351 350 350 348 346 345 343 341 338 336 338 341 343 335 328 329 333 336 327 313 311 323 345 2 239 283 321 326 324 325 330 337 338 333 329 333 331 320 302 278 276 271 262 281 304 292 279 308 253 225 226 230 239 245 255 281 282 287 278 251 246 246 245 250 202 197 251 245 222 227 232 229 224 216 226 231 198 196 212 213 219 223 229 226
356 353 352 352 351 351 350 348 347 345 343 341 336 336 340 339 335 327 321 327 331 327 314 304 308 327 1 283 267 320 336 331 327 327 329 328 329 329 326 327 327 316 298 272 273 276 268 272 284 275 285 304 269 266 307 263 225 234 229 250 271 287 272 243 232 235 230 240 186 163 244 240 230 233 227 227 231 234 251 250 240 230 214 205 203 203 224 226
356 354 353 352 351 351 350 349 347 344 343 339 337 341 341 334 329 323 322 331 334 317 304 304 312 333 19 269 292 341 340 331 327 327 327 326 327 326 323 325 325 312 297 278 278 283 273 267 265 271 277 258 268 304 309 317 197 207 204 222 234 249 255 231 210 211 221 234 189 192 246 245 238 233 218 221 218 214 239 244 240 235 221 207 201 201 217 215
356 354 353 353 351 351 350 348 346 345 342 339 343 347 340 334 332 332 337 345 335 318 300 299 309 344 20 278 311 337 335 333 329 327 326 325 326 322 319 322 322 316 303 283 280 283 266 257 248 265 279 244 274 297 276 274 312 197 196 216 205 229 252 258 229 205 215 228 186 200 244 252 245 238 214 208 203 208 228 238 235 231 219 207 203 203 214 215
355 353 352 352 351 351 350 348 347 345 341 342 349 347 339 339 339 342 347 310 326 323 302 300 308 62 75 291 329 337 335 336 328 326 327 323 315 305 309 315 314 318 317 297 279 274 256 250 244 228 270 274 265 276 267 240 233 209 209 227 200 219 244 260 247 213 214 224 196 208 237 257 246 238 226 196 190 208 222 232 231 225 220 210 204 205 211 217
353 352 351 351 351 350 350 349 348 345 342 346 349 345 345 351 1 46 356 331 338 354 91 43 303 129 179 315 340 336 328 332 328 328 333 334 324 305 304 309 308 316 316 301 261 221 222 225 245 221 218 258 244 250 256 232 213 205 212 246 237 222 234 237 240 220 212 220 213 215 233 246 246 258 240 195 189 206 215 227 229 222 218 211 204 207 206 211
351 350 351 350 350 350 350 349 348 345 344 351 350 345 358 13 63 86 4 356 360 49 87 30 13 92 265 321 334 321 319 325 325 327 340 346 339 319 303 286 298 321 325 315 230 148 158 204 236 249 223 230 232 233 245 246 232 215 205 219 239 243 252 243 244 231 207 215 221 218 233 243 245 262 281 230 198 209 213 217 225 217 205 210 207 210 210 212
349 349 350 349 349 349 348 349 349 347 351 358 355 354 32 31 99 62 2 12 34 60 26 337 12 86 272 303 307 309 317 321 321 328 346 348 337 319 303 280 290 330 352 356 4 153 178 215 221 237 245 236 236 238 253 278 289 251 227 221 217 223 249 249 251 260 222 218 224 221 234 245 244 243 254 271 211 208 223 218 221 216 205 213 208 211 214 217
347 347 348 347 348 346 348 350 348 353 2 6 12 40 39 21 30 351 353 8 67 124 309 293 7 217 276 292 299 315 324 326 322 324 342 347 338 321 309 304 17 16 103 276 286 42 138 218 231 228 234 225 222 260 272 290 294 278 257 238 212 203 248 256 251 278 316 240 229 225 233 241 241 235 232 247 230 203 223 218 221 227 220 213 210 226 224 220
345 346 345 345 346 344 348 350 348 2 14 18 36 57 46 18 9 332 336 331 304 322 291 274 270 262 270 281 298 321 335 332 297 309 337 345 348 337 327 14 360 336 290 280 281 343 48 249 247 233 244 215 169 243 292 306 295 278 244 219 213 209 249 265 254 286 352 323 241 233 235 240 239 231 216 233 241 224 212 208 219 229 228 217 219 232 230 221
345 344 344 343 343 342 346 348 351 12 26 34 50 67 70 24 355 265 312 313 311 334 302 289 289 265 278 286 300 329 345 313 307 318 342 348 358 0 329 338 325 292 303 312 302 305 276 260 255 224 203 176 177 210 255 309 301 272 243 215 223 210 253 277 272 313 348 344 264 254 240 244 244 235 219 222 235 234 214 205 214 224 230 222 218 224 220 222
344 343 343 342 341 340 342 347 357 28 42 47 53 59 44 18 14 175 258 274 297 319 308 310 309 282 304 313 331 345 335 306 303 312 338 356 353 328 294 309 295 294 307 308 294 289 273 268 279 246 187 192 232 230 199 274 288 245 234 230 233 184 116 258 278 339 336 285 259 279 265 258 255 243 229 226 230 233 226 219 218 219 228 227 218 219 214 214
343 342 341 340 338 337 340 348 14 38 44 58 50 35 29 17 24 95 205 247 304 297 263 262 258 273 303 323 335 337 323 268 256 295 338 6 335 275 266 305 306 301 295 296 276 263 269 271 314 343 236 215 243 255 213 237 263 245 235 239 240 187 176 235 294 347 334 318 324 335 303 269 242 221 227 230 228 228 231 234 238 233 233 242 233 226 222 215
343 342 339 338 336 335 340 358 24 19 28 79 38 17 20 12 5 73 80 67 330 289 288 278 223 294 307 328 335 324 266 270 237 273 317 345 321 301 315 324 313 298 289 307 294 264 275 265 249 269 251 222 230 236 210 212 271 300 272 276 265 215 205 278 348 6 0 330 356 17 306 262 232 212 219 211 206 214 222 230 240 243 235 238 243 231 225 224
342 341 338 337 335 336 345 29 7 3 33 80 5 357 6 1 359 140 92 62 345 297 337 347 337 338 333 341 335 320 62 318 296 303 314 320 314 290 308 322 219 284 290 308 302 264 289 294 259 237 216 199 208 212 190 163 109 298 243 321 289 222 196 242 334 15 75 251 319 46 30 273 326 286 255 221 203 205 200 212 231 246 241 220 224 232 225 223
341 339 338 337 337 342 352 352 348 359 60 349 341 345 352 353 95 153 69 43 3 310 330 323 325 352 343 336 332 336 60 311 314 326 13 342 323 245 285 317 298 283 281 309 308 215 296 314 338 232 200 196 204 213 192 168 134 220 183 82 18 249 215 218 206 198 218 268 305 50 74 279 296 284 269 237 225 228 211 206 217 234 247 241 229 228 231 232
340 339 341 341 340 343 346 333 342 6 358 328 334 340 342 348 160 134 79 64 335 316 264 295 316 335 335 331 343 46 264 306 331 329 336 345 337 179 286 302 291 287 289 291 296 49 199 302 359 14 317 196 206 217 189 185 183 184 169 140 82 46 230 204 183 197 209 274 283 298 11 279 269 269 270 220 220 247 240 226 226 224 238 250 251 242 231 234
340 342 345 346 349 353 349 346 353 359 339 330 336 336 333 51 124 66 72 94 285 330 192 301 334 329 338 339 351 35 320 338 79 301 325 353 352 295 274 270 295 297 297 250 264 296 260 239 355 341 313 203 241 244 186 187 214 153 145 136 111 77 318 140 159 171 110 124 247 260 206 217 269 256 245 254 217 231 245 248 246 238 238 245 254 260 253 239
342 346 353 1 19 9 353 3 7 349 339 339 335 329 330 108 76 54 46 324 295 316 263 3 358 322 345 352 340 354 351 331 307 307 332 354 330 344 208 222 300 292 298 267 258 292 290 267 49 288 302 288 258 293 240 208 280 97 105 94 96 92 69 73 101 104 81 97 240 238 202 184 267 237 181 219 222 208 223 251 262 261 261 260 254 258 260 253
344 353 6 11 16 7 358 354 353 345 343 345 335 334 32 55 62 82 65 272 303 313 315 360 356 340 353 358 327 343 347 317 329 356 352 335 348 4 22 26 348 316 340 345 335 321 313 347 349 256 290 337 343 354 356 354 1 57 92 104 140 171 94 79 29 71 102 250 241 224 196 178 235 252 204 258 282 245 221 230 251 257 256 261 262 258 258 256
345 358 14 14 9 8 5 340 338 343 344 344 341 14 88 28 28 96 268 317 342 312 327 327 331 341 338 337 325 331 332 319 343 8 351 335 4 13 28 31 354 347 4 355 342 336 325 325 332 310 314 24 19 357 355 23 25 30 97 111 117 96 49 138 194 96 190 250 272 208 178 184 241 243 241 267 284 277 251 236 245 255 255 256 259 260 265 268
346 8 22 23 13 7 2 341 336 342 342 344 355 48 79 71 29 218 271 332 258 275 310 284 313 326 325 342 345 330 325 316 345 358 350 346 8 17 36 31 16 20 357 333 337 347 339 313 352 5 355 18 35 22 355 1 18 15 20 105 113 133 334 223 202 86 218 298 340 182 167 234 277 242 219 232 247 248 245 245 241 246 252 257 266 275 283 286
349 49 25 22 15 6 357 345 342 344 343 353 52 58 61 77 271 242 280 279 251 295 323 285 310 325 0 12 329 332 343 309 351 359 347 359 11 7 18 16 19 25 329 322 358 14 355 312 351 15 337 331 14 28 264 246 236 250 240 119 97 119 233 257 160 76 351 335 346 12 151 204 230 248 227 226 248 267 266 270 270 272 278 287 312 331 329 317
7 64 22 15 10 3 353 346 346 345 344 11 69 62 77 143 252 265 252 256 262 330 307 300 347 356 358 345 317 352 12 288 346 358 346 5 10 357 3 360 8 13 352 350 1 12 342 265 295 337 313 327 359 349 261 217 289 265 246 98 81 284 226 242 188 172 124 25 329 197 211 224 210 294 315 281 313 3 7 2 10 4 350 1 5 356 353 347
358 4 20 12 5 359 350 348 345 342 349 64 67 57 154 189 195 178 209 271 306 325 317 333 29 38 346 330 325 345 353 246 334 348 343 358 355 357 11 349 358 17 14 353 347 357 340 283 308 340 330 314 346 333 325 21 341 299 16 59 256 225 138 80 308 207 115 99 268 161 224 274 298 313 336 24 44 30 24 22 28 22 12 18 13 354 352 349
21 359 16 9 3 355 348 347 341 342 13 86 80 107 210 206 176 180 221 340 304 349 15 351 6 51 348 317 324 336 334 316 351 2 346 350 347 351 7 338 347 17 9 319 347 26 335 296 318 2 330 308 334 345 339 38 29 353 354 318 294 64 100 91 326 349 68 215 267 162 216 258 354 281 340 23 32 23 17 13 15 14 14 10 352 339 339 334
7 356 5 4 358 351 345 340 336 349 55 73 70 128 193 229 193 202 268 19 358 15 49 295 283 80 52 296 294 326 335 336 359 7 338 345 342 351 16 346 336 3 356 341 30 11 324 297 306 61 330 316 342 28 358 356 25 28 287 310 344 43 10 6 23 3 10 315 308 280 232 248 192 259 353 8 6 9 8 6 8 1 355 350 335 334 334 333
6 16 357 354 355 351 343 337 342 27 72 67 68 164 204 256 256 237 253 12 129 43 23 222 267 26 114 243 270 308 336 334 344 352 339 354 334 4 32 352 330 351 352 15 49 305 332 337 290 346 349 325 335 30 5 338 348 345 327 1 31 33 315 342 72 39 47 303 312 341 348 319 266 236 42 320 322 6 10 3 2 346 336 336 331 332 333 334
30 53 319 346 356 351 343 2 30 52 67 96 176 202 236 256 278 280 312 3 163 202 266 209 208 8 230 254 270 282 323 320 326 329 234 289 315 359 25 7 348 346 339 5 38 306 355 25 284 315 346 342 329 21 34 341 338 352 16 22 13 349 340 358 20 65 72 346 336 358 324 275 244 199 188 229 272 24 20 358 348 338 333 333 334 334 333 333
43 58 309 347 355 346 355 38 51 53 82 112 169 247 300 174 313 330 336 356 338 231 36 176 183 212 235 269 292 263 301 314 312 294 263 269 288 358 28 24 359 341 337 2 14 355 352 350 296 309 336 339 301 306 328 252 242 339 34 32 11 355 17 19 355 20 34 6 348 355 290 269 238 184 181 208 312 4 12 356 343 343 340 335 338 337 332 332
60 84 309 351 352 351 44 62 23 60 116 112 243 238 333 66 65 345 335 2 8 359 19 76 197 242 252 295 310 296 324 308 265 251 240 240 253 246 359 16 1 347 358 343 315 296 199 347 300 288 297 292 286 299 334 278 181 101 54 39 14 7 42 46 330 333 353 343 340 94 260 274 265 163 147 78 359 350 358 360 347 343 343 339 338 337 334 330
65 226 317 1 353 357 71 58 337 24 62 293 293 233 346 49 67 340 341 6 10 344 351 358 221 303 2 359 318 308 342 313 249 254 259 256 263 234 26 20 9 2 4 330 303 323 44 34 311 294 296 297 296 320 3 2 77 69 23 19 34 40 48 29 256 289 308 259 265 167 240 276 295 79 53 1 350 340 341 355 349 339 337 337 336 336 337 331
37 250 296 5 4 24 101 83 41 48 296 321 353 339 340 64 108 31 353 317 330 344 357 334 292 358 20 349 325 305 333 327 273 303 325 280 276 258 40 17 5 5 355 299 314 338 334 219 10 341 336 336 337 348 348 342 20 50 357 8 41 28 10 338 305 9 319 247 237 191 242 264 275 1 343 325 326 324 323 339 344 332 329 332 333 333 333 331
12 340 269 358 23 54 99 138 137 150 258 1 6 341 351 347 355 60 196 269 324 356 308 293 310 71 42 341 351 349 336 329 304 334 356 317 290 310 9 358 354 345 283 285 302 292 240 269 208 39 356 304 308 302 294 324 339 348 316 332 356 346 327 316 346 349 266 245 67 202 247 273 289 312 317 308 308 317 323 331 332 328 328 328 330 332 330 331
34 37 303 338 20 50 62 359 71 107 150 70 11 324 35 342 311 3 133 96 5 16 17 325 343 55 35 12 11 340 324 325 307 318 325 306 288 309 347 340 334 307 295 318 345 42 153 270 229 221 232 227 249 265 273 311 308 296 301 309 317 306 278 259 250 235 217 68 301 242 240 267 286 296 302 302 309 322 330 333 331 329 330 328 326 326 325 326
61 102 3 340 354 21 26 8 33 65 135 134 168 261 108 32 314 337 37 86 347 8 42 17 22 47 31 29 28 300 302 324 311 294 291 288 271 298 322 314 300 321 343 354 2 26 66 297 247 236 249 249 257 274 289 305 294 289 297 299 295 289 273 245 234 231 202 51 269 254 245 266 281 289 296 298 309 326 331 331 329 325 325 325 322 322 324 325
64 149 175 99 302 316 10 345 16 55 27 155 161 191 89 77 7 332 315 319 345 13 77 27 33 72 104 95 105 279 309 327 312 288 285 295 308 321 320 298 293 18 30 16 356 32 72 274 251 233 264 272 275 284 294 296 286 283 286 286 285 277 256 239 240 236 220 227 255 271 289 282 278 285 292 297 315 331 326 327 328 322 323 326 324 323 325 329
75 118 296 21 103 204 223 306 334 54 19 318 158 226 176 146 181 269 294 3 346 337 59 109 232 163 153 157 149 208 275 305 300 286 272 298 320 327 320 309 347 38 42 26 354 17 117 267 282 291 293 293 287 283 283 282 281 281 277 270 266 259 248 245 251 246 233 240 257 275 282 273 269 279 290 304 330 338 330 338 340 331 330 332 328 324 328 338
111 150 257 29 31 245 236 351 23 59 14 351 243 256 191 156 195 265 265 154 269 308 347 148 203 210 203 191 176 211 226 225 260 266 260 295 306 296 272 279 288 358 14 16 337 337 1 323 340 354 317 292 280 274 273 273 276 278 277 266 257 259 259 256 259 256 244 250 256 262 268 270 277 304 316 328 349 357 351 346 340 332 328 327 330 333 340 347
121 129 132 100 31 305 291 10 66 78 344 337 205 230 211 178 193 202 256 215 197 233 230 151 170 245 215 193 206 239 245 239 244 247 245 258 261 236 227 256 296 332 341 350 321 337 8 322 344 10 338 287 270 287 298 294 285 278 275 267 260 260 259 247 244 229 215 243 258 259 263 278 322 20 9 347 347 354 353 341 333 326 322 326 340 351 351 347
128 97 100 107 65 296 278 46 59 84 282 248 202 213 205 166 171 159 296 279 226 224 201 154 148 320 305 257 253 247 237 231 239 246 246 246 249 245 244 258 273 284 287 301 323 323 207 276 329 350 309 282 288 316 312 310 308 290 263 246 238 244 258 261 265 245 224 229 253 265 270 311 1 18 16 352 341 339 341 336 324 315 315 327 345 353 349 342